Regional Weather Roundup
Issued by NWS Goodland, KS

Home | Current Version | Previous Version | Text Only | Print | Product List | Glossary Off
Versions: 1 2 3 4 5 6 7 8 9 10 11 12 13 14 15 16 17 18 19 20 21 22 23 24 25 26 27 28 29 30 31 32 33 34 35 36 37 38 39 40 41 42 43 44 45 46 47 48 49 50

000
ASUS43 KGLD 290608
RWRGLD

GOODLAND FORECAST AREA HOURLY WEATHER ROUNDUP
NATIONAL WEATHER SERVICE GOODLAND KS
1200 AM MDT WED JUL 29 2015

...OFFICIAL OBSERVATIONS...

CITY           SKY/WX    TMP DP  RH WIND       PRES   REMARKS
GOODLAND KS    PTCLDY    61  51  70 CALM      30.18R
HILL CITY KS   CLEAR     62  59  90 N8        30.10R
IMPERIAL NEB   CLEAR     63  50  62 NW3       30.17S
MCCOOK NEB     PTCLDY    61  52  72 CALM      30.13R
AKRON CO       CLEAR     63  45  51 S8        30.24F
BURLINGTON CO  MOCLDY    63  47  55 NE7       30.21F
LIMON CO       PTCLDY    57  47  69 CALM      30.30R
$$

...UNOFFICIAL OBSERVATIONS...

CITY           SKY/WX    TMP DP  RH WIND       PRES   REMARKS
COLBY KS       CLEAR     64  57  77 N8        30.17R
NORTON KS      CLEAR     61  54  77 N7        30.10S
SHARON SPRINGS   N/A     63  56  78 N6          N/A
KIT CARSON CO    N/A     64  48  56 MISG        N/A
$$


USA.gov is the U.S. government's official web portal to all federal, state and local government web resources and services.